Date,TemperatureHighF,TemperatureAvgF,TemperatureLowF,DewpointHighF,DewpointAvgF,DewpointLowF,HumidityHigh,HumidityAvg,HumidityLow,PressureMaxIn,PressureMinIn,WindSpeedMaxMPH,WindSpeedAvgMPH,GustSpeedMaxMPH,PrecipitationSumIn
2013-10-4,54,49,38,35,30,26,86,49,34,0.00,40.00,15,8,22,0.09
2013-10-5,58,45,30,35,30,26,97,62,29,0.00,40.00,12,7,16,0.00
2013-10-6,70,51,33,35,31,28,86,52,22,0.00,40.00,12,6,16,0.00
2013-10-7,72,50,33,38,33,29,93,58,23,0.00,40.00,11,5,14,0.00
2013-10-8,55,48,34,36,33,29,84,55,37,0.00,40.00,25,15,29,0.00
2013-10-9,67,46,29,46,32,28,98,65,27,0.00,40.00,30,8,36,0.00
2013-10-10,52,48,42,46,38,30,93,69,48,0.00,40.00,23,14,27,0.01
2013-10-11,56,46,37,34,31,29,76,57,36,0.00,40.00,19,13,24,0.00
2013-10-12,62,46,32,36,32,-100,97,64,32,0.00,40.00,11,4,13,0.00
2013-10-13,49,45,43,47,44,36,100,95,61,0.00,40.00,12,5,15,0.33
2013-10-14,48,42,36,44,40,35,100,91,74,0.00,40.00,21,11,24,0.07
2013-10-15,53,39,29,35,31,23,100,79,32,0.00,40.00,10,4,14,0.02
2013-10-16,56,41,30,35,30,26,91,68,32,0.00,40.00,15,10,19,0.00
2013-10-17,56,44,29,36,33,29,100,67,36,0.00,40.00,14,5,17,0.00
2013-10-18,56,41,26,36,30,21,100,69,29,0.00,40.00,11,4,14,0.00
2013-10-19,63,48,33,38,29,-100,87,54,24,0.00,40.00,19,11,22,0.00
2013-10-20,61,50,40,36,32,28,76,51,29,0.00,40.00,15,7,20,0.00
2013-10-21,63,45,32,39,34,30,91,67,34,0.00,40.00,10,6,13,0.00
2013-10-22,67,48,33,38,34,31,99,64,30,0.00,40.00,11,5,13,0.00
2013-10-23,69,48,31,36,33,28,95,61,25,0.00,40.00,11,4,14,0.00
2013-10-24,69,48,30,37,33,28,95,61,28,0.00,40.00,10,4,12,0.00
2013-10-25,68,47,33,38,33,30,96,62,26,0.00,40.00,9,5,11,0.00
2013-10-26,68,46,31,37,29,-100,94,59,20,0.00,40.00,11,5,13,0.00
2013-10-27,68,51,32,36,29,24,85,48,19,0.00,40.00,14,6,17,0.00
2013-10-28,63,47,38,46,37,-100,100,76,33,0.00,40.00,21,10,26,0.06
2013-10-29,51,40,35,42,38,35,100,91,59,0.00,40.00,13,3,16,0.02
2013-10-30,44,41,38,41,36,33,97,83,67,0.00,40.00,21,14,26,0.02
2013-10-31,52,44,38,41,35,30,84,71,47,0.00,40.00,22,15,29,0.00